Location: New Frontier Mobile Home Park
(32.8448°N, 116.9675°W)
Time: 20:49:35
(UTC+00:00)

CZ-4C R/B - Pass Details

Date: 14 July 2020
Orbit: 632 x 1370 km, 63.4° (Epoch: 13 August)

Event Time Altitude Azimuth Distance (km) Brightness Sun altitude
Rises 07:17:10 0° 331° (NNW) 3,977 6.6 -34.9°
Reaches altitude 10° 07:19:45 10° 332° (NNW) 3,106 5.8 -35.0°
Enters shadow 07:27:08 78° 31° (NNE) 1,325 3.0 -35.2°
